Location: North Evanston
(42.0634°N, 87.6976°W)
Time: 14:52:15
(UTC+00:00)

Vanguard 2 - Pass Details

Date: 15 May 2026
Orbit: 553 x 2894 km, 32.9° (Epoch: 8 June)

Event Time Altitude Azimuth Distance (km) Brightness Sun altitude
Rises 12:34:08 0° 276° (W) 6,594 11.7 21.1°
Reaches altitude 10° 12:39:11 10° 270° (W) 5,381 11.3 22.1°
Maximum altitude 12:52:35 40° 209° (SSW) 2,771 10.3 24.5°
Drops below altitude 10° 13:01:37 10° 144° (SE) 3,636 11.5 26.2°
Sets 13:04:21 0° 136° (SE) 4,326 11.9 26.7°
